EZY9171 LGSK-LOWW

Flight info

Callsign EZY9171
Flight time 1h 46m
Altitude 38000
Route TSL UM600 YNN UL604 DIMIS DCT RETRA DCT OBUTI OBUTI2W
Aircraft A20N/M-SDE2E3FGHIRWXY/LB1

Departure

Time 2026-04-25 06:53
Airport Skiathos Island National Airport (LGSK)

Arrival

Time 2026-04-25 08:39
Airport Vienna International Airport (LOWW)
Time Latitude Longitude Altitude Speed Heading
2026-04-25 06:22 39.17910 23.50237 39 ft 0 kts 289°
2026-04-25 06:44 39.17902 23.50267 37 ft 4 kts 283°
2026-04-25 06:44 39.17899 23.50302 39 ft 4 kts 266°
2026-04-25 06:44 39.17905 23.50332 39 ft 4 kts 213°
2026-04-25 06:44 39.17914 23.50338 37 ft 1 kts 199°
2026-04-25 06:45 39.17915 23.50338 38 ft 0 kts 199°
2026-04-25 06:47 39.17907 23.50335 40 ft 4 kts 198°
2026-04-25 06:47 39.17863 23.50316 39 ft 10 kts 198°
2026-04-25 06:48 39.17792 23.50285 39 ft 12 kts 199°
2026-04-25 06:48 39.17700 23.50253 38 ft 15 kts 193°
2026-04-25 06:48 39.17634 23.50227 38 ft 0 kts 199°
2026-04-25 06:48 39.17625 23.50223 38 ft 3 kts 199°
2026-04-25 06:49 39.17617 23.50219 38 ft 0 kts 199°
2026-04-25 06:49 39.17616 23.50219 38 ft 1 kts 199°
2026-04-25 06:50 39.17596 23.50218 38 ft 6 kts 171°
2026-04-25 06:50 39.17557 23.50261 38 ft 9 kts 131°
2026-04-25 06:50 39.17497 23.50272 39 ft 11 kts 197°
2026-04-25 06:50 39.17409 23.50233 36 ft 17 kts 199°
2026-04-25 06:51 39.17265 23.50170 29 ft 26 kts 199°
2026-04-25 06:51 39.17103 23.50098 18 ft 18 kts 197°
2026-04-25 06:51 39.17019 23.50089 11 ft 7 kts 225°
2026-04-25 06:51 39.17042 23.50062 12 ft 3 kts 24°
2026-04-25 06:52 39.17064 23.50079 16 ft 5 kts 27°
2026-04-25 06:52 39.17153 23.50119 23 ft 42 kts 19°
2026-04-25 06:52 39.17698 23.50360 40 ft 120 kts 19°
2026-04-25 06:52 39.18651 23.50771 326 ft 152 kts 18°
2026-04-25 06:53 39.19638 23.51193 1145 ft 152 kts 19°
2026-04-25 06:53 39.20659 23.51643 1956 ft 158 kts 19°
2026-04-25 06:53 39.21741 23.52141 2562 ft 171 kts 21°
2026-04-25 06:53 39.22863 23.52693 3252 ft 178 kts 23°
2026-04-25 06:54 39.24081 23.53196 3862 ft 193 kts
2026-04-25 06:54 39.25481 23.52920 4300 ft 218 kts 345°
2026-04-25 06:54 39.26982 23.52195 4805 ft 242 kts 340°
2026-04-25 06:54 39.28625 23.51325 5211 ft 264 kts 341°
2026-04-25 06:55 39.30340 23.50461 6159 ft 266 kts 342°
2026-04-25 06:55 39.32098 23.49629 7024 ft 272 kts 343°
2026-04-25 06:55 39.33896 23.48819 7906 ft 276 kts 344°
2026-04-25 06:55 39.35733 23.48011 8796 ft 281 kts 344°
2026-04-25 06:56 39.37602 23.47197 9689 ft 286 kts 344°
2026-04-25 06:56 39.39433 23.46400 10418 ft 294 kts 344°
2026-04-25 06:56 39.41450 23.45525 10757 ft 317 kts 344°
2026-04-25 06:57 39.43612 23.44583 11082 ft 337 kts 343°
2026-04-25 06:57 39.45852 23.43601 11815 ft 342 kts 343°
2026-04-25 06:57 39.48095 23.42518 12619 ft 347 kts 334°
2026-04-25 06:57 39.50143 23.40809 13405 ft 353 kts 327°
2026-04-25 06:58 39.52168 23.38972 14172 ft 357 kts 326°
2026-04-25 06:58 39.54212 23.37102 14857 ft 361 kts 326°
2026-04-25 06:58 39.56280 23.35214 15546 ft 365 kts 327°
2026-04-25 06:58 39.58372 23.33312 16228 ft 369 kts 327°
2026-04-25 06:59 39.60491 23.31392 16907 ft 373 kts 327°
2026-04-25 06:59 39.62635 23.29452 17573 ft 378 kts 327°
2026-04-25 06:59 39.64771 23.27518 18230 ft 382 kts 327°
2026-04-25 06:59 39.66959 23.25536 18816 ft 385 kts 327°
2026-04-25 07:00 39.69166 23.23535 19415 ft 388 kts 327°
2026-04-25 07:00 39.71391 23.21515 19999 ft 392 kts 327°
2026-04-25 07:00 39.73632 23.19480 20567 ft 395 kts 328°
2026-04-25 07:00 39.75896 23.17423 21140 ft 399 kts 328°
2026-04-25 07:01 39.78180 23.15346 21716 ft 402 kts 328°
2026-04-25 07:01 39.80479 23.13253 22270 ft 405 kts 328°
2026-04-25 07:01 39.82798 23.11140 22831 ft 409 kts 328°
2026-04-25 07:01 39.85139 23.09006 23384 ft 412 kts 328°
2026-04-25 07:02 39.87496 23.06855 23887 ft 415 kts 328°
2026-04-25 07:02 39.89867 23.04688 24365 ft 417 kts 328°
2026-04-25 07:02 39.92249 23.02509 24843 ft 420 kts 328°
2026-04-25 07:02 39.94648 23.00312 25301 ft 422 kts 328°
2026-04-25 07:03 39.97058 22.98102 25754 ft 425 kts 328°
2026-04-25 07:03 39.99481 22.95879 26192 ft 427 kts 328°
2026-04-25 07:03 40.01918 22.93641 26629 ft 429 kts 328°
2026-04-25 07:03 40.04371 22.91387 27048 ft 432 kts 328°
2026-04-25 07:04 40.06831 22.89123 27457 ft 434 kts 328°
2026-04-25 07:04 40.09274 22.86873 27857 ft 436 kts 328°
2026-04-25 07:04 40.11764 22.84579 28248 ft 439 kts 328°
2026-04-25 07:04 40.14259 22.82278 28620 ft 441 kts 328°
2026-04-25 07:05 40.16774 22.79956 28978 ft 443 kts 328°
2026-04-25 07:05 40.19298 22.77623 29340 ft 445 kts 328°
2026-04-25 07:05 40.21831 22.75280 29686 ft 447 kts 328°
2026-04-25 07:05 40.24378 22.72922 30035 ft 449 kts 328°
2026-04-25 07:06 40.26939 22.70548 30353 ft 451 kts 328°
2026-04-25 07:06 40.29502 22.68170 30670 ft 452 kts 328°
2026-04-25 07:06 40.32072 22.65783 30987 ft 454 kts 328°
2026-04-25 07:06 40.34657 22.63381 31333 ft 454 kts 328°
2026-04-25 07:07 40.37233 22.60985 31746 ft 453 kts 328°
2026-04-25 07:07 40.39802 22.58592 32177 ft 452 kts 328°
2026-04-25 07:07 40.42355 22.56212 32585 ft 450 kts 328°
2026-04-25 07:07 40.44906 22.53832 32998 ft 449 kts 328°
2026-04-25 07:08 40.47449 22.51456 33397 ft 447 kts 328°
2026-04-25 07:08 40.49984 22.49087 33770 ft 446 kts 328°
2026-04-25 07:08 40.52514 22.46721 34139 ft 445 kts 328°
2026-04-25 07:08 40.54999 22.44395 34430 ft 444 kts 328°
2026-04-25 07:09 40.57513 22.42038 34711 ft 444 kts 328°
2026-04-25 07:09 40.60026 22.39680 34990 ft 443 kts 328°
2026-04-25 07:09 40.62540 22.37319 35252 ft 443 kts 328°
2026-04-25 07:09 40.65043 22.34966 35511 ft 442 kts 328°
2026-04-25 07:10 40.67545 22.32612 35770 ft 441 kts 328°
2026-04-25 07:10 40.70044 22.30259 36018 ft 441 kts 328°
2026-04-25 07:10 40.72534 22.27911 36252 ft 440 kts 328°
2026-04-25 07:10 40.74188 22.26351 36421 ft 440 kts 328°
2026-04-25 07:11 40.76676 22.24001 36655 ft 439 kts 328°
2026-04-25 07:11 40.79157 22.21657 36885 ft 438 kts 328°
2026-04-25 07:11 40.81640 22.19308 37111 ft 438 kts 328°
2026-04-25 07:11 40.84114 22.16966 37333 ft 437 kts 328°
2026-04-25 07:12 40.86580 22.14628 37532 ft 437 kts 328°
2026-04-25 07:12 40.91514 22.09947 37939 ft 436 kts 328°
2026-04-25 07:12 40.93976 22.07606 38089 ft 436 kts 328°
2026-04-25 07:13 40.98847 22.02969 38090 ft 434 kts 328°
2026-04-25 07:13 41.03748 21.98297 38096 ft 434 kts 328°
2026-04-25 07:14 41.08644 21.93620 38095 ft 434 kts 328°
2026-04-25 07:14 41.13542 21.88933 38102 ft 433 kts 328°
2026-04-25 07:15 41.18419 21.84257 38104 ft 433 kts 328°
2026-04-25 07:15 41.23268 21.79597 38113 ft 433 kts 328°
2026-04-25 07:16 41.28152 21.74897 38110 ft 433 kts 328°
2026-04-25 07:16 41.33021 21.70204 38112 ft 432 kts 328°
2026-04-25 07:17 41.37885 21.65504 38115 ft 432 kts 328°
2026-04-25 07:17 41.42746 21.60798 38114 ft 432 kts 328°
2026-04-25 07:18 41.47568 21.56122 38115 ft 431 kts 328°
2026-04-25 07:18 41.52425 21.51403 38117 ft 431 kts 328°
2026-04-25 07:19 41.57277 21.46679 38114 ft 431 kts 328°
2026-04-25 07:19 41.62123 21.41953 38119 ft 431 kts 328°
2026-04-25 07:20 41.66970 21.37218 38113 ft 431 kts 328°
2026-04-25 07:20 41.71775 21.32514 38113 ft 430 kts 328°
2026-04-25 07:21 41.76614 21.27768 38132 ft 431 kts 328°
2026-04-25 07:21 41.81447 21.23016 38126 ft 431 kts 328°
2026-04-25 07:22 41.86288 21.18250 38107 ft 431 kts 328°
2026-04-25 07:22 41.91079 21.13523 38123 ft 431 kts 327°
2026-04-25 07:23 41.95908 21.08750 38119 ft 430 kts 327°
2026-04-25 07:23 42.00725 21.03979 38111 ft 430 kts 327°
2026-04-25 07:24 42.05546 20.99196 38110 ft 430 kts 327°
2026-04-25 07:24 42.10356 20.94414 38110 ft 430 kts 327°
2026-04-25 07:25 42.15168 20.89620 38114 ft 431 kts 327°
2026-04-25 07:25 42.19978 20.84821 38116 ft 429 kts 327°
2026-04-25 07:26 42.24749 20.80050 38114 ft 430 kts 327°
2026-04-25 07:26 42.29554 20.75236 38113 ft 430 kts 327°
2026-04-25 07:27 42.34358 20.70413 38111 ft 430 kts 327°
2026-04-25 07:27 42.39154 20.65590 38116 ft 429 kts 327°
2026-04-25 07:28 42.43947 20.60759 38116 ft 429 kts 327°
2026-04-25 07:28 42.48709 20.55951 38113 ft 429 kts 327°
2026-04-25 07:29 42.53499 20.51105 38113 ft 429 kts 327°
2026-04-25 07:29 42.58282 20.46257 38120 ft 429 kts 327°
2026-04-25 07:30 42.63067 20.41397 38117 ft 429 kts 327°
2026-04-25 07:30 42.67846 20.36533 38119 ft 429 kts 327°
2026-04-25 07:31 42.72623 20.31662 38120 ft 429 kts 326°
2026-04-25 07:31 42.77403 20.26779 38118 ft 429 kts 326°
2026-04-25 07:32 42.82174 20.21895 38124 ft 429 kts 326°
2026-04-25 07:32 42.86944 20.17001 38122 ft 428 kts 326°
2026-04-25 07:33 42.91707 20.12107 38121 ft 429 kts 326°
2026-04-25 07:33 42.96431 20.07243 38138 ft 428 kts 326°
2026-04-25 07:34 43.01219 20.02301 38127 ft 428 kts 326°
2026-04-25 07:34 43.05935 19.97425 38132 ft 427 kts 326°
2026-04-25 07:35 43.10677 19.92513 38136 ft 428 kts 326°
2026-04-25 07:35 43.15413 19.87597 38136 ft 427 kts 326°
2026-04-25 07:36 43.20152 19.82667 38137 ft 426 kts 326°
2026-04-25 07:36 43.24883 19.77737 38136 ft 426 kts 326°
2026-04-25 07:37 43.29598 19.72813 38139 ft 426 kts 326°
2026-04-25 07:37 43.34315 19.67877 38136 ft 427 kts 326°
2026-04-25 07:38 43.39033 19.62929 38139 ft 426 kts 326°
2026-04-25 07:38 43.43715 19.58012 38140 ft 426 kts 325°
2026-04-25 07:39 43.48429 19.53050 38137 ft 426 kts 325°
2026-04-25 07:39 43.53139 19.48081 38143 ft 426 kts 325°
2026-04-25 07:40 43.57843 19.43111 38144 ft 426 kts 325°
2026-04-25 07:40 43.62549 19.38126 38140 ft 426 kts 325°
2026-04-25 07:41 43.67221 19.33169 38143 ft 426 kts 325°
2026-04-25 07:41 43.71913 19.28180 38141 ft 426 kts 324°
2026-04-25 07:42 43.76602 19.23183 38140 ft 425 kts 324°
2026-04-25 07:42 43.81283 19.18186 38139 ft 425 kts 324°
2026-04-25 07:43 43.85963 19.13178 38139 ft 424 kts 324°
2026-04-25 07:43 43.90629 19.08177 38133 ft 424 kts 324°
2026-04-25 07:44 43.95293 19.03166 38131 ft 424 kts 324°
2026-04-25 07:44 43.99952 18.98151 38125 ft 424 kts 324°
2026-04-25 07:45 44.04604 18.93133 38119 ft 423 kts 324°
2026-04-25 07:45 44.09258 18.88102 38119 ft 423 kts 324°
2026-04-25 07:46 44.13903 18.83071 38115 ft 423 kts 324°
2026-04-25 07:46 44.18516 18.78067 38110 ft 422 kts 324°
2026-04-25 07:47 44.23146 18.73031 38106 ft 422 kts 323°
2026-04-25 07:47 44.27769 18.67993 38107 ft 422 kts 323°
2026-04-25 07:48 44.32393 18.62943 38104 ft 422 kts 323°
2026-04-25 07:48 44.37013 18.57888 38105 ft 421 kts 323°
2026-04-25 07:49 44.41631 18.52826 38103 ft 422 kts 323°
2026-04-25 07:49 44.46247 18.47754 38102 ft 422 kts 323°
2026-04-25 07:50 44.50833 18.42704 38103 ft 422 kts 323°
2026-04-25 07:50 44.55476 18.37582 38102 ft 422 kts 323°
2026-04-25 07:51 44.60059 18.32515 38099 ft 422 kts 323°
2026-04-25 07:51 44.64669 18.27408 38100 ft 422 kts 322°
2026-04-25 07:52 44.69279 18.22290 38102 ft 422 kts 322°
2026-04-25 07:52 44.73885 18.17166 38094 ft 422 kts 322°
2026-04-25 07:53 44.78493 18.12030 38094 ft 422 kts 322°
2026-04-25 07:53 44.83092 18.06892 38094 ft 422 kts 322°
2026-04-25 07:54 44.87694 18.01740 38096 ft 421 kts 322°
2026-04-25 07:54 44.92262 17.96614 38093 ft 422 kts 322°
2026-04-25 07:55 44.96855 17.91450 38093 ft 422 kts 322°
2026-04-25 07:55 45.01442 17.86284 38095 ft 421 kts 322°
2026-04-25 07:56 45.06029 17.81104 38087 ft 422 kts 322°
2026-04-25 07:56 45.10608 17.75923 38094 ft 421 kts 321°
2026-04-25 07:57 45.15174 17.70748 38088 ft 420 kts 321°
2026-04-25 07:57 45.19707 17.65598 38089 ft 420 kts 321°
2026-04-25 07:58 45.24265 17.60409 38088 ft 420 kts 321°
2026-04-25 07:58 45.28815 17.55217 38092 ft 419 kts 321°
2026-04-25 07:59 45.33354 17.50027 38089 ft 418 kts 321°
2026-04-25 07:59 45.37891 17.44829 38091 ft 418 kts 321°
2026-04-25 08:00 45.42412 17.39638 38086 ft 418 kts 321°
2026-04-25 08:00 45.46903 17.34469 38092 ft 417 kts 321°
2026-04-25 08:01 45.51410 17.29272 38089 ft 416 kts 321°
2026-04-25 08:01 45.55911 17.24071 38095 ft 416 kts 321°
2026-04-25 08:02 45.59647 17.19746 38092 ft 415 kts 320°
2026-04-25 08:02 45.64127 17.14548 38093 ft 415 kts 320°
2026-04-25 08:03 45.69334 17.08494 38092 ft 415 kts 320°
2026-04-25 08:03 45.73083 17.04125 38092 ft 415 kts 320°
2026-04-25 08:04 45.77561 16.98897 38094 ft 415 kts 320°
2026-04-25 08:04 45.82006 16.93697 38095 ft 415 kts 320°
2026-04-25 08:05 45.86472 16.88461 38092 ft 414 kts 320°
2026-04-25 08:05 45.90931 16.83221 38099 ft 415 kts 320°
2026-04-25 08:06 45.95394 16.77966 38094 ft 415 kts 320°
2026-04-25 08:06 45.99856 16.72700 38095 ft 415 kts 320°
2026-04-25 08:07 46.04307 16.67437 38102 ft 414 kts 320°
2026-04-25 08:07 46.08760 16.62160 38096 ft 414 kts 319°
2026-04-25 08:08 46.13213 16.56877 38100 ft 414 kts 319°
2026-04-25 08:08 46.17656 16.51595 38095 ft 414 kts 319°
2026-04-25 08:09 46.22098 16.46304 38095 ft 414 kts 319°
2026-04-25 08:09 46.26531 16.41011 38093 ft 413 kts 319°
2026-04-25 08:10 46.30936 16.35742 38095 ft 413 kts 319°
2026-04-25 08:10 46.35414 16.30510 37963 ft 414 kts 324°
2026-04-25 08:11 46.37921 16.28435 37688 ft 417 kts 333°
2026-04-25 08:11 46.40643 16.26965 37417 ft 420 kts 342°
2026-04-25 08:11 46.43518 16.26079 37148 ft 424 kts 348°
2026-04-25 08:11 46.46436 16.25394 36888 ft 425 kts 347°
2026-04-25 08:12 46.49367 16.24698 36322 ft 428 kts 347°
2026-04-25 08:12 46.52326 16.23991 35508 ft 433 kts 347°
2026-04-25 08:12 46.55305 16.23282 34812 ft 434 kts 347°
2026-04-25 08:12 46.58293 16.22572 34056 ft 436 kts 347°
2026-04-25 08:13 46.61297 16.21857 33222 ft 437 kts 348°
2026-04-25 08:13 46.64256 16.21153 32500 ft 436 kts 348°
2026-04-25 08:13 46.67253 16.20440 31729 ft 436 kts 348°
2026-04-25 08:14 46.73212 16.19019 30564 ft 429 kts 348°
2026-04-25 08:14 46.76152 16.18317 29972 ft 426 kts 348°
2026-04-25 08:14 46.79061 16.17621 29414 ft 420 kts 348°
2026-04-25 08:14 46.81925 16.16936 28864 ft 415 kts 348°
2026-04-25 08:15 46.84760 16.16257 28335 ft 410 kts 348°
2026-04-25 08:15 46.87562 16.15584 27800 ft 405 kts 348°
2026-04-25 08:15 46.90329 16.14919 27280 ft 401 kts 348°
2026-04-25 08:15 46.93071 16.14259 26756 ft 397 kts 348°
2026-04-25 08:16 46.95783 16.13605 26238 ft 394 kts 348°
2026-04-25 08:16 46.98478 16.12955 25720 ft 390 kts 348°
2026-04-25 08:16 47.01115 16.12318 25213 ft 388 kts 348°
2026-04-25 08:16 47.03771 16.11676 24698 ft 385 kts 348°
2026-04-25 08:17 47.06413 16.11036 24184 ft 383 kts 348°
2026-04-25 08:17 47.09044 16.10398 23645 ft 382 kts 348°
2026-04-25 08:17 47.11658 16.09766 23115 ft 379 kts 348°
2026-04-25 08:17 47.14243 16.09139 22602 ft 375 kts 348°
2026-04-25 08:18 47.16801 16.08517 22093 ft 371 kts 348°
2026-04-25 08:18 47.19341 16.07900 21589 ft 367 kts 348°
2026-04-25 08:18 47.21852 16.07289 21091 ft 364 kts 348°
2026-04-25 08:18 47.24345 16.06683 20588 ft 362 kts 348°
2026-04-25 08:19 47.26815 16.06081 20090 ft 359 kts 348°
2026-04-25 08:19 47.29270 16.05483 19599 ft 356 kts 348°
2026-04-25 08:19 47.31702 16.04890 19101 ft 353 kts 348°
2026-04-25 08:19 47.34130 16.04313 18576 ft 353 kts 351°
2026-04-25 08:20 47.36581 16.04197 18095 ft 353 kts
2026-04-25 08:20 47.39001 16.04733 17767 ft 353 kts 11°
2026-04-25 08:20 47.41389 16.05826 17468 ft 372 kts 15°
2026-04-25 08:20 47.43839 16.07039 17149 ft 369 kts 15°
2026-04-25 08:21 47.46259 16.08236 16830 ft 363 kts 15°
2026-04-25 08:21 47.48648 16.09418 16517 ft 362 kts 15°
2026-04-25 08:21 47.51044 16.10603 16195 ft 363 kts 15°
2026-04-25 08:21 47.53436 16.11789 15887 ft 361 kts 15°
2026-04-25 08:22 47.55815 16.12972 15574 ft 360 kts 16°
2026-04-25 08:22 47.58181 16.14153 15271 ft 358 kts 16°
2026-04-25 08:22 47.60540 16.15329 14973 ft 356 kts 16°
2026-04-25 08:22 47.62888 16.16501 14664 ft 355 kts 16°
2026-04-25 08:23 47.65224 16.17665 14360 ft 354 kts 16°
2026-04-25 08:23 47.67521 16.18810 14061 ft 352 kts 16°
2026-04-25 08:23 47.69833 16.19968 13743 ft 351 kts 16°
2026-04-25 08:23 47.72136 16.21121 13433 ft 347 kts 16°
2026-04-25 08:24 47.74416 16.22285 13130 ft 346 kts 19°
2026-04-25 08:24 47.76562 16.23921 12828 ft 348 kts 31°
2026-04-25 08:24 47.78445 16.26198 12537 ft 350 kts 43°
2026-04-25 08:24 47.80100 16.28850 12236 ft 348 kts 44°
2026-04-25 08:25 47.81741 16.31479 11934 ft 346 kts 44°
2026-04-25 08:25 47.83377 16.34087 11673 ft 342 kts 44°
2026-04-25 08:25 47.84972 16.36633 11556 ft 330 kts 44°
2026-04-25 08:25 47.86503 16.39081 11445 ft 317 kts 44°
2026-04-25 08:26 47.87864 16.41600 11331 ft 308 kts 54°
2026-04-25 08:26 47.88780 16.44417 11037 ft 307 kts 68°
2026-04-25 08:26 47.89358 16.47476 10667 ft 306 kts 73°
2026-04-25 08:26 47.89455 16.50653 10257 ft 311 kts 97°
2026-04-25 08:27 47.88669 16.53649 9859 ft 314 kts 123°
2026-04-25 08:27 47.87128 16.55927 9417 ft 314 kts 149°
2026-04-25 08:27 47.85130 16.57111 9174 ft 305 kts 168°
2026-04-25 08:27 47.83058 16.57693 8912 ft 303 kts 173°
2026-04-25 08:28 47.80975 16.58224 8690 ft 303 kts 172°
2026-04-25 08:28 47.78935 16.58858 8576 ft 294 kts 169°
2026-04-25 08:28 47.76985 16.59567 8462 ft 284 kts 168°
2026-04-25 08:28 47.75087 16.60317 8200 ft 280 kts 167°
2026-04-25 08:29 47.73218 16.61085 7842 ft 279 kts 167°
2026-04-25 08:29 47.71348 16.61865 7517 ft 278 kts 167°
2026-04-25 08:29 47.69492 16.62677 7190 ft 279 kts 161°
2026-04-25 08:29 47.67908 16.64252 6853 ft 281 kts 132°
2026-04-25 08:30 47.66950 16.66733 6542 ft 278 kts 103°
2026-04-25 08:30 47.66843 16.69542 6168 ft 271 kts 73°
2026-04-25 08:30 47.67477 16.72101 5823 ft 260 kts 50°
2026-04-25 08:30 47.68735 16.73894 5450 ft 246 kts 22°
2026-04-25 08:31 47.70311 16.74682 5108 ft 234 kts 359°
2026-04-25 08:31 47.71889 16.74475 4996 ft 227 kts 338°
2026-04-25 08:31 47.73402 16.73806 4900 ft 228 kts 339°
2026-04-25 08:31 47.74931 16.73167 4790 ft 227 kts 339°
2026-04-25 08:32 47.76451 16.72549 4687 ft 226 kts 339°
2026-04-25 08:32 47.77963 16.71936 4586 ft 226 kts 339°
2026-04-25 08:32 47.79485 16.71315 4494 ft 228 kts 339°
2026-04-25 08:32 47.81011 16.70691 4386 ft 226 kts 339°
2026-04-25 08:33 47.82522 16.70070 4288 ft 225 kts 339°
2026-04-25 08:33 47.84001 16.69462 4138 ft 227 kts 339°
2026-04-25 08:33 47.85532 16.68828 3982 ft 224 kts 339°
2026-04-25 08:33 47.87053 16.68208 3675 ft 228 kts 340°
2026-04-25 08:34 47.88571 16.67593 3454 ft 228 kts 340°
2026-04-25 08:34 47.90114 16.66966 3219 ft 231 kts 340°
2026-04-25 08:34 47.91661 16.66339 3078 ft 229 kts 341°
2026-04-25 08:34 47.93168 16.65734 3015 ft 216 kts 341°
2026-04-25 08:35 47.94567 16.65167 3016 ft 201 kts 341°
2026-04-25 08:35 47.95864 16.64651 3026 ft 185 kts 340°
2026-04-25 08:35 47.97098 16.64125 3036 ft 180 kts 340°
2026-04-25 08:35 47.98265 16.63631 2838 ft 173 kts 340°
2026-04-25 08:36 47.99439 16.63129 2579 ft 177 kts 341°
2026-04-25 08:36 48.00598 16.62641 2323 ft 167 kts 341°
2026-04-25 08:36 48.01670 16.62188 2121 ft 154 kts 342°
2026-04-25 08:36 48.02659 16.61767 1908 ft 141 kts 341°
2026-04-25 08:37 48.03547 16.61389 1722 ft 133 kts 342°
2026-04-25 08:37 48.04412 16.61023 1537 ft 123 kts 342°
2026-04-25 08:37 48.05240 16.60669 1377 ft 128 kts 342°
2026-04-25 08:37 48.06097 16.60306 1193 ft 127 kts 342°
2026-04-25 08:38 48.06954 16.59944 1021 ft 128 kts 342°
2026-04-25 08:38 48.07784 16.59590 839 ft 120 kts 343°
2026-04-25 08:38 48.08601 16.59241 700 ft 126 kts 343°
2026-04-25 08:38 48.09450 16.58877 620 ft 121 kts 342°
2026-04-25 08:39 48.10111 16.58604 618 ft 70 kts 345°
2026-04-25 08:39 48.10392 16.58417 624 ft 28 kts 311°
2026-04-25 08:39 48.10488 16.58195 621 ft 24 kts 314°
2026-04-25 08:39 48.10635 16.58103 615 ft 23 kts 345°
2026-04-25 08:40 48.10792 16.58039 611 ft 24 kts 345°
2026-04-25 08:40 48.10954 16.57970 614 ft 25 kts 343°
2026-04-25 08:40 48.11097 16.57884 614 ft 21 kts 312°
2026-04-25 08:40 48.11165 16.57690 616 ft 22 kts 296°
2026-04-25 08:41 48.11235 16.57480 617 ft 23 kts 296°
2026-04-25 08:41 48.11308 16.57259 612 ft 24 kts 295°
2026-04-25 08:41 48.11382 16.57026 621 ft 25 kts 296°
2026-04-25 08:41 48.11461 16.56785 622 ft 26 kts 296°
2026-04-25 08:42 48.11542 16.56536 622 ft 27 kts 296°
2026-04-25 08:42 48.11624 16.56280 617 ft 28 kts 296°
2026-04-25 08:42 48.11710 16.56020 614 ft 28 kts 296°
2026-04-25 08:42 48.11797 16.55753 615 ft 27 kts 295°
2026-04-25 08:43 48.11850 16.55599 617 ft 5 kts 313°
2026-04-25 08:43 48.11883 16.55602 609 ft 6 kts 16°
2026-04-25 08:43 48.11918 16.55627 614 ft 2 kts 25°
2026-04-25 08:43 48.11927 16.55633 617 ft 0 kts 22°